FW6320 Weather Reports


Display with metric or nautical units.
time (UTC)temp
F
wind
direction
speed
MPH
gust
MPH
rain 1hr
in
rain 24hr
in
rain mn
in
humidity
%
barometer
mb
20260901024023 88 130 1.0 4.0 0.00 0.00 0.00 46 1014.6
20260901023521 88 133 1.0 4.0 0.00 0.00 0.00 45 1014.4
20260901023048 89 134 1.0 5.0 0.00 0.00 0.00 45 1014.4
20260901022519 89 133 2.0 5.0 0.00 0.00 0.00 44 1014.4
20260901022018 89 133 2.0 5.0 0.00 0.00 0.00 44 1014.4
20260901021602 89 133 2.0 5.0 0.00 0.00 0.00 44 1014.3
20260901021020 90 132 3.0 5.0 0.00 0.00 0.00 44 1014.2
20260901020521 89 127 2.0 4.0 0.00 0.00 0.00 44 1014.2
20260901020040 89 126 2.0 4.0 0.00 0.00 0.00 44 1014.1
20260901015523 89 130 2.0 4.0 0.00 0.00 0.00 43 1014.1
20260901015024 90 133 2.0 4.0 0.00 0.00 0.00 43 1014.0
20260901014543 90 138 1.0 4.0 0.00 0.00 0.00 43 1014.0
20260901014021 90 137 2.0 4.0 0.00 0.00 0.00 42 1014.0
20260901013519 91 137 1.0 5.0 0.00 0.00 0.00 42 1014.0
20260901013041 91 137 2.0 5.0 0.00 0.00 0.00 42 1014.0
20260901012521 91 137 2.0 5.0 0.00 0.00 0.00 41 1013.9
20260901012026 92 131 2.0 5.0 0.00 0.00 0.00 41 1013.7
20260901011541 92 136 3.0 7.0 0.00 0.00 0.00 40 1013.8
20260901011022 92 125 3.0 7.0 0.00 0.00 0.00 40 1013.8
20260901010520 93 138 3.0 7.0 0.00 0.00 0.00 40 1013.8
20260901010042 93 136 3.0 9.0 0.00 0.00 0.00 39 1013.7
20260901005520 94 140 4.0 9.0 0.00 0.00 0.00 39 1013.7
20260901005026 94 129 4.0 10.0 0.00 0.00 0.00 39 1013.7
20260901004545 94 142 5.0 12.0 0.00 0.00 0.00 39 1013.7
20260901004022 94 138 7.0 12.0 0.00 0.00 0.00 38 1013.7
20260901003521 95 137 5.0 12.0 0.00 0.00 0.00 39 1013.7
20260901003044 95 165 7.0 12.0 0.00 0.00 0.00 38 1013.7
20260901002520 95 137 6.0 11.0 0.00 0.00 0.00 38 1013.7
20260901002022 95 132 4.0 12.0 0.00 0.00 0.00 38 1013.7
20260901001541 95 124 5.0 12.0 0.00 0.00 0.00 37 1013.7
20260901001022 96 114 8.0 12.0 0.00 0.00 0.00 37 1013.7
20260901000520 96 139 6.0 11.0 0.00 0.00 0.00 38 1013.7
20260901000041 96 157 6.0 11.0 0.00 0.00 0.00 37 1013.7
20260831235524 96 172 6.0 11.0 0.00 0.00 0.00 37 1013.7
20260831235024 96 153 4.0 12.0 0.00 0.00 0.00 38 1013.6
20260831234542 96 122 6.0 12.0 0.00 0.00 0.00 37 1013.7
20260831234023 96 140 7.0 13.0 0.00 0.00 0.00 36 1013.7
20260831233519 97 121 8.0 13.0 0.00 0.00 0.00 36 1013.6
20260831233041 97 144 7.0 16.0 0.00 0.00 0.00 36 1013.7
20260831232521 97 137 8.0 16.0 0.00 0.00 0.00 36 1013.6
20260831232025 97 132 8.0 15.0 0.00 0.00 0.00 36 1013.6
20260831231556 97 126 7.0 13.0 0.00 0.00 0.00 36 1013.6
20260831231021 97 124 7.0 15.0 0.00 0.00 0.00 36 1013.7
20260831230521 97 123 8.0 15.0 0.00 0.00 0.00 36 1013.7
20260831230040 98 143 8.0 13.0 0.00 0.00 0.00 36 1013.6
20260831225523 98 136 5.0 11.0 0.00 0.00 0.00 35 1013.7
20260831225022 98 138 2.0 9.0 0.00 0.00 0.00 36 1013.8
20260831224611 98 190 4.0 10.0 0.00 0.00 0.00 37 1013.7
20260831224021 98 194 4.0 10.0 0.00 0.00 0.00 36 1013.8
20260831223523 98 163 4.0 11.0 0.00 0.00 0.00 36 1013.8
20260831223042 98 163 5.0 15.0 0.00 0.00 0.00 36 1013.9
20260831222520 98 155 6.0 15.0 0.00 0.00 0.00 36 1013.8
20260831222020 98 136 10.0 14.0 0.00 0.00 0.00 36 1013.9
20260831221555 98 139 6.0 12.0 0.00 0.00 0.00 36 1013.9
20260831221020 98 139 7.0 14.0 0.00 0.00 0.00 35 1013.9
20260831220521 98 153 6.0 14.0 0.00 0.00 0.00 37 1014.1
20260831220052 97 204 3.0 15.0 0.00 0.00 0.00 37 1014.2
20260831215524 97 158 2.0 15.0 0.00 0.00 0.00 36 1014.2
20260831215024 97 125 4.0 13.0 0.00 0.00 0.00 38 1014.2
20260831214548 96 202 4.0 14.0 0.00 0.00 0.00 38 1014.2
20260831214026 96 199 5.0 14.0 0.00 0.00 0.00 38 1014.2
20260831213522 97 134 5.0 12.0 0.00 0.00 0.00 37 1014.3
20260831213042 98 184 4.0 14.0 0.00 0.00 0.00 37 1014.5
20260831212518 99 172 6.0 14.0 0.00 0.00 0.00 36 1014.5
20260831212020 98 78 5.0 15.0 0.00 0.00 0.00 35 1014.4
20260831211603 99 149 7.0 15.0 0.00 0.00 0.00 35 1014.4
20260831211022 99 128 9.0 15.0 0.00 0.00 0.00 35 1014.4
20260831210522 100 138 4.0 13.0 0.00 0.00 0.00 35 1014.4
20260831210049 99 139 4.0 14.0 0.00 0.00 0.00 36 1014.6
20260831205519 99 138 4.0 14.0 0.00 0.00 0.00 35 1014.7
20260831205023 99 205 5.0 12.0 0.00 0.00 0.00 36 1014.8
20260831204541 98 143 4.0 11.0 0.00 0.00 0.00 36 1014.9
20260831204019 98 136 5.0 15.0 0.00 0.00 0.00 36 1015.1
20260831203520 98 117 3.0 15.0 0.00 0.00 0.00 36 1015.1
20260831203045 99 147 8.0 15.0 0.00 0.00 0.00 36 1015.2
20260831202525 98 79 6.0 16.0 0.00 0.00 0.00 37 1015.2
20260831202022 97 139 7.0 16.0 0.00 0.00 0.00 37 1015.3
20260831201541 98 147 4.0 16.0 0.00 0.00 0.00 37 1015.3
20260831201021 98 124 7.0 16.0 0.00 0.00 0.00 36 1015.4
20260831200520 97 209 5.0 15.0 0.00 0.00 0.00 37 1015.4
20260831200040 97 114 10.0 22.0 0.00 0.00 0.00 37 1015.4
20260831195521 98 151 7.0 22.0 0.00 0.00 0.00 37 1015.6
20260831195027 98 137 7.0 13.0 0.00 0.00 0.00 38 1015.7
20260831194555 97 163 8.0 19.0 0.00 0.00 0.00 38 1015.7
20260831194026 97 140 7.0 19.0 0.00 0.00 0.00 39 1015.7
20260831193522 98 139 6.0 19.0 0.00 0.00 0.00 37 1015.8
20260831193050 98 156 4.0 15.0 0.00 0.00 0.00 35 1015.9
20260831192525 98 140 7.0 15.0 0.00 0.00 0.00 34 1015.8
20260831192025 98 144 5.0 15.0 0.00 0.00 0.00 34 1015.9
20260831191551 98 114 7.0 17.0 0.00 0.00 0.00 35 1015.9
20260831191021 97 133 8.0 18.0 0.00 0.00 0.00 37 1016.0
20260831190524 96 181 10.0 18.0 0.00 0.00 0.00 42 1016.1
20260831190051 96 192 4.0 14.0 0.00 0.00 0.00 39 1016.0
20260831185524 96 163 5.0 13.0 0.00 0.00 0.00 42 1016.1
20260831185023 97 144 5.0 12.0 0.00 0.00 0.00 38 1016.2
20260831184546 97 149 5.0 11.0 0.00 0.00 0.00 38 1016.3
20260831184022 96 153 4.0 9.0 0.00 0.00 0.00 38 1016.4
20260831183528 97 215 4.0 11.0 0.00 0.00 0.00 39 1016.3
20260831183050 97 177 5.0 11.0 0.00 0.00 0.00 39 1016.5
20260831182524 97 170 5.0 11.0 0.00 0.00 0.00 39 1016.6
20260831182025 97 217 4.0 14.0 0.00 0.00 0.00 40 1016.6
20260831181540 97 201 4.0 14.0 0.00 0.00 0.00 38 1016.7
20260831181024 97 147 5.0 17.0 0.00 0.00 0.00 38 1017.0
20260831180531 97 167 8.0 17.0 0.00 0.00 0.00 40 1016.9
20260831180049 96 204 4.0 17.0 0.00 0.00 0.00 40 1017.0
20260831175522 96 182 6.0 17.0 0.00 0.00 0.00 40 1017.0
20260831175023 96 211 5.0 11.0 0.00 0.00 0.00 40 1017.1
20260831174548 97 205 5.0 11.0 0.00 0.00 0.00 42 1017.2
20260831174021 97 215 2.0 9.0 0.00 0.00 0.00 41 1017.3
20260831173524 96 220 2.0 10.0 0.00 0.00 0.00 42 1017.3
20260831173045 96 160 4.0 11.0 0.00 0.00 0.00 43 1017.4
20260831172523 95 202 5.0 12.0 0.00 0.00 0.00 42 1017.4
20260831172029 95 140 5.0 12.0 0.00 0.00 0.00 42 1017.4
20260831171548 95 150 4.0 9.0 0.00 0.00 0.00 43 1017.5
20260831171024 94 172 4.0 11.0 0.00 0.00 0.00 43 1017.6
20260831170524 95 200 5.0 11.0 0.00 0.00 0.00 42 1017.7
20260831170044 95 196 3.0 9.0 0.00 0.00 0.00 42 1017.6
20260831165523 95 193 5.0 10.0 0.00 0.00 0.00 43 1017.7
20260831165024 94 183 4.0 11.0 0.00 0.00 0.00 44 1017.6
20260831164542 94 200 5.0 11.0 0.00 0.00 0.00 44 1017.6
20260831164025 94 179 4.0 9.0 0.00 0.00 0.00 45 1017.6
20260831163526 94 191 4.0 9.0 0.00 0.00 0.00 46 1017.7
20260831163041 94 178 3.0 10.0 0.00 0.00 0.00 45 1017.7
20260831162527 93 180 4.0 10.0 0.00 0.00 0.00 46 1017.7
20260831162025 93 205 4.0 8.0 0.00 0.00 0.00 46 1017.8
20260831161550 93 130 3.0 8.0 0.00 0.00 0.00 47 1017.8
20260831161022 93 200 3.0 12.0 0.00 0.00 0.00 47 1017.8
20260831160524 92 193 5.0 12.0 0.00 0.00 0.00 46 1017.7
20260831160047 92 200 5.0 10.0 0.00 0.00 0.00 46 1017.8
20260831155524 91 207 3.0 10.0 0.00 0.00 0.00 47 1017.8
20260831155028 91 220 5.0 13.0 0.00 0.00 0.00 46 1017.8
20260831154622 91 203 7.0 13.0 0.00 0.00 0.00 47 1017.8
20260831154021 91 199 5.0 11.0 0.00 0.00 0.00 46 1017.8
20260831153525 90 203 6.0 11.0 0.00 0.00 0.00 48 1017.8
20260831153042 90 200 3.0 9.0 0.00 0.00 0.00 50 1017.7
20260831152524 89 208 4.0 10.0 0.00 0.00 0.00 51 1017.7
20260831152024 90 201 4.0 10.0 0.00 0.00 0.00 51 1017.7
20260831151607 89 187 4.0 10.0 0.00 0.00 0.00 53 1017.7
20260831151025 89 198 4.0 9.0 0.00 0.00 0.00 52 1017.7
20260831150525 89 190 4.0 9.0 0.00 0.00 0.00 53 1017.6
20260831150046 88 202 5.0 10.0 0.00 0.00 0.00 54 1017.7
20260831145521 88 175 4.0 10.0 0.00 0.00 0.00 54 1017.6
20260831145025 88 243 5.0 10.0 0.00 0.00 0.00 55 1017.6
20260831144545 87 211 6.0 11.0 0.00 0.00 0.00 55 1017.6
20260831144024 87 192 4.0 11.0 0.00 0.00 0.00 58 1017.7
20260831143527 87 202 4.0 10.0 0.00 0.00 0.00 58 1017.7
20260831143048 86 205 4.0 10.0 0.00 0.00 0.00 58 1017.6
20260831142525 86 208 4.0 10.0 0.00 0.00 0.00 61 1017.6
20260831142028 85 206 3.0 10.0 0.00 0.00 0.00 63 1017.5
20260831141549 85 212 4.0 10.0 0.00 0.00 0.00 63 1017.4
20260831141022 84 209 5.0 10.0 0.00 0.00 0.00 65 1017.4
20260831140524 84 204 5.0 10.0 0.00 0.00 0.00 66 1017.5
20260831140046 83 202 5.0 9.0 0.00 0.00 0.00 67 1017.4
20260831135524 83 211 4.0 8.0 0.00 0.00 0.00 68 1017.4
20260831135023 83 205 2.0 7.0 0.00 0.00 0.00 69 1017.3
20260831134548 82 211 3.0 8.0 0.00 0.00 0.00 69 1017.2
20260831134021 82 187 4.0 8.0 0.00 0.00 0.00 69 1017.3
20260831133521 82 175 3.0 6.0 0.00 0.00 0.00 69 1017.2
20260831133042 82 196 2.0 7.0 0.00 0.00 0.00 69 1017.1
20260831132526 82 194 2.0 7.0 0.00 0.00 0.00 70 1017.1
20260831132027 81 210 2.0 6.0 0.00 0.00 0.00 70 1017.1
20260831131600 81 195 2.0 5.0 0.00 0.00 0.00 71 1017.0
20260831131026 80 192 1.0 5.0 0.00 0.00 0.00 71 1016.9
20260831130523 80 197 2.0 5.0 0.00 0.00 0.00 72 1016.8
20260831130057 79 0 0.0 0.0 0.00 0.00 0.00 73 1016.7
20260831125525 79 0 0.0 0.0 0.00 0.00 0.00 74 1016.5
20260831125022 78 0 0.0 0.0 0.00 0.00 0.00 74 1016.5
20260831124547 78 0 0.0 0.0 0.00 0.00 0.00 75 1016.4
20260831124021 77 0 0.0 0.0 0.00 0.00 0.00 75 1016.3
20260831123524 77 0 0.0 0.0 0.00 0.00 0.00 75 1016.2
20260831123044 77 0 0.0 0.0 0.00 0.00 0.00 75 1016.0
20260831122525 77 0 0.0 0.0 0.00 0.00 0.00 75 1015.8
20260831122026 77 0 0.0 0.0 0.00 0.00 0.00 75 1015.9
20260831121554 77 0 0.0 0.0 0.00 0.00 0.00 74 1015.8
20260831121027 77 0 0.0 0.0 0.00 0.00 0.00 74 1015.7
20260831120525 77 0 0.0 0.0 0.00 0.00 0.00 73 1015.7
20260831120044 77 0 0.0 0.0 0.00 0.00 0.00 73 1015.7
20260831115526 77 0 0.0 0.0 0.00 0.00 0.00 73 1015.6
20260831115022 78 0 0.0 0.0 0.00 0.00 0.00 73 1015.6
20260831114543 78 0 0.0 0.0 0.00 0.00 0.00 72 1015.5
20260831114021 78 0 0.0 0.0 0.00 0.00 0.00 72 1015.5
20260831113518 78 0 0.0 0.0 0.00 0.00 0.00 72 1015.5
20260831113043 78 0 0.0 0.0 0.00 0.00 0.00 72 1015.5
20260831112523 78 0 0.0 0.0 0.00 0.00 0.00 72 1015.4
20260831112024 78 0 0.0 3.0 0.00 0.00 0.00 71 1015.3
20260831111547 78 0 0.0 3.0 0.00 0.00 0.00 71 1015.3
20260831111028 78 0 0.0 4.0 0.00 0.00 0.00 71 1015.3
20260831110527 79 0 0.0 4.0 0.00 0.00 0.00 70 1015.3
20260831110043 79 171 2.0 4.0 0.00 0.00 0.00 70 1015.1
20260831105523 78 169 0.0 4.0 0.00 0.00 0.00 70 1015.2
20260831105021 78 0 0.0 4.0 0.00 0.00 0.00 70 1015.2
20260831104543 78 170 1.0 4.0 0.00 0.00 0.00 70 1015.2
20260831104026 79 171 0.0 0.0 0.00 0.00 0.00 70 1015.2
20260831103525 79 0 0.0 2.0 0.00 0.00 0.00 69 1015.2
20260831103045 79 0 0.0 3.0 0.00 0.00 0.00 69 1015.1
20260831102524 80 202 1.0 3.0 0.00 0.00 0.00 68 1015.1
20260831102027 80 202 1.0 3.0 0.00 0.00 0.00 68 1015.2
20260831101558 80 202 1.0 3.0 0.00 0.00 0.00 68 1015.2
20260831101025 80 202 1.0 3.0 0.00 0.00 0.00 67 1015.2
20260831100522 80 202 1.0 3.0 0.00 0.00 0.00 67 1015.0
20260831100100 80 202 1.0 4.0 0.00 0.00 0.00 67 1015.0
20260831095522 80 202 2.0 4.0 0.00 0.00 0.00 66 1015.0
20260831095024 81 202 2.0 4.0 0.00 0.00 0.00 66 1015.0
20260831094542 81 203 2.0 4.0 0.00 0.00 0.00 66 1014.9
20260831094021 81 202 2.0 4.0 0.00 0.00 0.00 65 1015.0
20260831093523 81 202 2.0 4.0 0.00 0.00 0.00 65 1014.9
20260831093048 81 204 2.0 5.0 0.00 0.00 0.00 65 1015.0
20260831092527 81 203 3.0 5.0 0.00 0.00 0.00 65 1014.8
20260831092027 81 206 3.0 5.0 0.00 0.00 0.00 65 1014.9
20260831091548 81 203 2.0 5.0 0.00 0.00 0.00 65 1014.8
20260831091022 81 205 3.0 5.0 0.00 0.00 0.00 65 1014.7
20260831090525 82 196 3.0 6.0 0.00 0.00 0.00 64 1014.7
20260831090043 82 206 3.0 6.0 0.00 0.00 0.00 64 1014.7
20260831085523 82 196 2.0 6.0 0.00 0.00 0.00 64 1014.7
20260831085021 82 201 3.0 6.0 0.00 0.00 0.00 64 1014.6
20260831084549 82 200 3.0 6.0 0.00 0.00 0.00 64 1014.6
20260831084024 81 215 3.0 6.0 0.00 0.00 0.00 65 1014.7
20260831083524 81 209 2.0 5.0 0.00 0.00 0.00 64 1014.7
20260831083052 81 202 3.0 6.0 0.00 0.00 0.00 64 1014.6
20260831082530 80 209 3.0 6.0 0.00 0.00 0.00 64 1014.7
20260831082024 80 208 4.0 6.0 0.00 0.00 0.00 63 1014.7
20260831081542 81 211 4.0 6.0 0.00 0.00 0.00 62 1014.7
20260831081021 81 213 3.0 5.0 0.00 0.00 0.00 60 1014.7
20260831080523 81 204 2.0 5.0 0.00 0.00 0.00 59 1014.8
20260831080042 81 0 0.0 1.0 0.00 0.00 0.00 59 1014.7
20260831075518 81 0 0.0 0.0 0.00 0.00 0.00 59 1014.7
20260831075024 81 0 0.0 0.0 0.00 0.00 0.00 59 1014.6
20260831074542 82 0 0.0 0.0 0.00 0.00 0.00 58 1014.6
20260831074026 82 0 0.0 0.0 0.00 0.00 0.00 58 1014.6
20260831073524 82 0 0.0 0.0 0.00 0.00 0.00 58 1014.6
20260831073048 82 0 0.0 0.0 0.00 0.00 0.00 58 1014.5
20260831072523 82 0 0.0 2.0 0.00 0.00 0.00 58 1014.5
20260831072022 82 0 0.0 5.0 0.00 0.00 0.00 58 1014.4
20260831071604 83 0 1.0 7.0 0.00 0.00 0.00 58 1014.3
20260831071021 83 155 2.0 7.0 0.00 0.00 0.00 57 1014.4
20260831070524 83 142 2.0 8.0 0.00 0.00 0.00 57 1014.5
20260831070043 83 142 3.0 8.0 0.00 0.00 0.00 56 1014.5
20260831065528 84 122 4.0 8.0 0.00 0.00 0.00 56 1014.5
20260831065030 84 119 4.0 9.0 0.00 0.00 0.00 56 1014.5
20260831064548 84 140 5.0 9.0 0.00 0.00 0.00 56 1014.5
20260831064026 84 137 5.0 9.0 0.00 0.00 0.00 56 1014.6
20260831063522 84 144 4.0 8.0 0.00 0.00 0.00 55 1014.5
20260831063042 84 146 3.0 8.0 0.00 0.00 0.00 55 1014.5
20260831062524 84 136 4.0 8.0 0.00 0.00 0.00 55 1014.5
20260831062026 84 144 5.0 8.0 0.00 0.00 0.00 55 1014.6
20260831061550 85 130 4.0 8.0 0.00 0.00 0.00 54 1014.6
20260831061026 85 140 4.0 10.0 0.00 0.00 0.00 54 1014.6
20260831060528 85 142 4.0 10.0 0.00 0.00 0.00 54 1014.6
20260831060046 85 137 6.0 10.0 0.00 0.00 0.00 54 1014.6
20260831055530 85 134 6.0 10.0 0.00 0.00 0.00 54 1014.5
20260831055025 86 146 6.0 10.0 0.00 0.00 0.00 53 1014.5
20260831054547 86 130 5.0 10.0 0.00 0.00 0.00 53 1014.4
20260831054027 86 132 4.0 10.0 0.00 0.00 0.00 53 1014.5
20260831053522 86 145 5.0 10.0 0.00 0.00 0.00 53 1014.4
20260831053050 86 141 5.0 8.0 0.00 0.00 0.00 52 1014.5
20260831052521 86 123 5.0 8.0 0.00 0.00 0.00 52 1014.4
20260831052022 86 149 4.0 7.0 0.00 0.00 0.00 53 1014.5
20260831051542 86 138 1.0 3.0 0.00 0.00 0.00 53 1014.4
20260831051024 86 131 0.0 9.0 0.00 0.00 0.00 52 1014.4
20260831050524 87 132 1.0 11.0 0.00 0.00 0.00 52 1014.4
20260831050051 87 140 5.0 11.0 0.00 0.00 0.00 51 1014.2
20260831045524 87 129 6.0 11.0 0.00 0.00 0.00 51 1014.2
20260831045024 87 140 6.0 11.0 0.00 0.00 0.00 51 1014.2
20260831044548 87 124 6.0 10.0 0.00 0.00 0.00 51 1014.1
20260831044024 87 119 4.0 9.0 0.00 0.00 0.00 51 1014.2
20260831043522 87 115 4.0 9.0 0.00 0.00 0.00 50 1014.3
20260831043044 87 115 4.0 9.0 0.00 0.00 0.00 50 1014.4
20260831042520 87 128 4.0 8.0 0.00 0.00 0.00 50 1014.3
20260831042021 87 134 3.0 7.0 0.00 0.00 0.00 50 1014.3
20260831041542 87 127 3.0 7.0 0.00 0.00 0.00 49 1014.4
20260831041026 87 144 3.0 7.0 0.00 0.00 0.00 49 1014.3
20260831040524 87 137 3.0 7.0 0.00 0.00 0.00 49 1014.3
20260831040050 87 136 3.0 6.0 0.00 0.00 0.00 48 1014.3
20260831035523 87 140 2.0 6.0 0.00 0.00 0.00 48 1014.3
20260831035052 88 123 2.0 6.0 0.00 0.00 0.00 47 1014.3
20260831034543 88 126 3.0 7.0 0.00 0.00 0.00 46 1014.2
20260831034021 88 140 3.0 7.0 0.00 0.00 0.00 46 1014.2
20260831033521 89 139 3.0 7.0 0.00 0.00 0.00 46 1014.2
20260831033050 89 145 3.0 5.0 0.00 0.00 0.00 45 1014.3
20260831032524 89 143 3.0 7.0 0.00 0.00 0.00 45 1014.2
20260831032028 89 132 4.0 8.0 0.00 0.00 0.00 44 1014.1
20260831031540 89 138 4.0 9.0 0.00 0.00 0.00 44 1014.1
20260831031027 89 137 5.0 9.0 0.00 0.00 0.00 44 1014.1
20260831030524 89 142 3.0 7.0 0.00 0.00 0.00 45 1014.0
20260831030045 89 137 3.0 6.0 0.00 0.00 0.00 44 1013.9
20260831025520 89 138 3.0 5.0 0.00 0.00 0.00 44 1013.9
20260831025021 89 139 3.0 7.0 0.00 0.00 0.00 44 1013.8
20260831024542 89 128 3.0 7.0 0.00 0.00 0.00 44 1013.9